Location: Pace/Milton
(30.6162°N, 87.1503°W)
Time: 17:23:42
(UTC-05:00)

ISS - Visible Passes

Search period start: 27 May 2022 00:00
Search period end: 06 June 2022 00:00
Orbit: 414 x 421 km, 51.6° (Epoch: 27 May)

Date Brightness Start Highest point End Pass type
(mag) Time Alt. Az. Time Alt. Az. Time Alt. Az.
27 May -0.5 22:38:59 10° NNW 22:39:32 13° N 22:39:32 13° N visible
28 May -1.1 21:51:40 10° N 21:53:07 13° NNE 21:53:07 13° NNE visible
29 May -0.7 22:38:51 10° NW 22:39:37 16° NW 22:39:37 16° NW visible
30 May -2.2 21:50:52 10° NNW 21:53:15 31° NNE 21:53:15 31° NNE visible
31 May -1.8 21:03:08 10° NNW 21:05:41 20° NE 21:06:55 17° ENE visible
31 May -0.6 22:39:31 10° WNW 22:39:50 12° WNW 22:39:50 12° WNW visible
01 Jun -1.2 20:15:48 10° N 20:17:17 12° NNE 20:18:47 10° ENE visible
01 Jun -2.8 21:51:00 10° NW 21:53:32 44° W 21:53:32 44° W visible
02 Jun -3.7 21:02:47 10° NW 21:06:06 65° NE 21:07:17 35° ESE visible
03 Jun -2.6 20:14:45 10° NNW 20:17:48 32° NE 20:20:51 10° ESE visible
03 Jun -1.3 21:52:17 10° W 21:54:00 15° WSW 21:54:00 15° WSW visible
04 Jun -2.3 21:03:13 10° WNW 21:06:11 30° SW 21:07:51 19° S visible
05 Jun -3.5 20:14:40 10° NW 20:17:59 64° SW 20:21:16 10° SE visible
